[[{"header":{"parameterUnit":"m.s-1","parameterCategory":1,"la1":30.2991,"la2":30.254,"lo1":-89.0895,"lo2":-89.0444,"dy":0.0017,"dx":0.0017,"nx":28,"ny":28,"refTime":"2024-07-05T09:00:00:Z","depth":0,"parameterNumber":2,"parameterNumberName":"U-component_of_WINDS"},"data":[0,0,0,0,0,0,0,0,0,0,0,0,0,0,0,0,0,0,0,0,0,0,0,0,0,0,0,0,0,0,0,0,0,0,0,0,0,0,0,0,0,0,0,0,0,0,0,0,0,0,0,0,0,0,0,0,0,0,3.4784,3.4785,0,3.4911,3.4912,3.4914,3.487,3.4867,3.4864,3.4862,3.4991,3.4997,3.5003,0,0,0,0,0,0,0,0,0,0,0,0,0,3.4501,3.4506,3.4784,3.4785,3.4787,3.491,3.4912,3.4914,3.487,3.4867,3.4863,3.486,3.4989,3.4996,3.5003,0,0,0,0,0,0,0,0,0,0,0,0,0,3.4625,3.4508,3.4783,3.478,3.4781,3.491,3.4912,3.4914,3.4871,3.4867,3.4863,3.4859,3.4987,3.4995,3.5004,3.5144,0,0,3.5032,3.5036,0,0,0,0,0,0,0,0,3.4618,3.4636,3.4779,3.478,3.4782,3.487,3.486,3.4991,3.4872,3.4837,3.4861,3.4857,3.4954,3.4966,3.4999,3.515,3.5156,3.5033,3.5038,3.5042,3.5045,0,0,0,0,0,0,0,3.461,3.463,3.4834,3.4781,3.4783,3.4771,3.4784,3.4885,3.4917,3.484,3.4837,3.4852,3.4954,3.499,3.5001,3.5158,3.5033,3.5041,3.5046,3.505,3.5427,3.5431,0,0,0,0,0,0,3.4601,3.4623,3.483,3.4838,3.4688,3.478,3.4794,3.4846,3.4916,3.4923,3.4856,3.485,3.4976,3.4991,3.5006,3.5171,3.5042,3.5051,3.5056,3.5422,3.5428,3.5433,0,0,0,0,0,0,3.4595,3.4619,3.4825,3.473,3.4755,3.4789,3.4847,3.4851,3.4886,3.4928,3.4934,3.4887,3.4974,3.4993,3.5109,3.5175,3.5055,3.5063,3.5417,3.5424,3.543,3.5505,0,0,0,0,0,0,3.4587,3.4618,3.4672,3.4731,3.476,3.4927,3.4852,3.4856,3.4902,3.4896,3.4959,3.4965,3.4972,3.5096,3.5118,3.5185,3.507,3.5411,3.542,3.5428,3.5497,3.5513,3.5528,0,0,0,0,0,3.4577,3.4688,3.4675,3.47,3.4829,3.4931,3.4948,3.4953,3.4908,3.4962,3.4988,3.4963,3.5165,3.5108,3.5133,3.5204,3.5407,3.5417,3.5427,3.549,3.551,3.5527,0,0,0,0,0,0,3.4636,3.4696,3.4682,3.4816,3.4869,3.4924,3.4992,3.4975,3.5042,3.5033,3.5037,3.5051,3.517,3.5199,3.5135,3.5341,3.5279,3.5294,3.5318,3.5337,3.5353,3.5342,3.5078,0,0,0,0,0,3.4665,3.4744,3.4792,3.4906,3.4933,3.4958,3.5003,3.5003,3.5057,3.5079,3.5114,3.5168,3.5242,3.5292,3.5364,3.5501,3.5512,3.5562,3.5577,3.559,3.5603,3.5674,3.5695,3.5466,3.5466,3.5466,0,0,3.4725,3.4768,3.4817,3.4919,3.4959,3.5039,3.4977,3.5065,3.5124,3.5092,3.5203,3.5231,3.5291,3.5418,3.5475,3.5445,3.5669,3.5603,3.5613,3.5619,3.5687,3.5708,3.5728,3.5473,3.5472,3.5471,0,0,3.4875,3.4916,3.5014,3.5056,3.5118,3.5134,3.5157,3.5214,3.5231,3.5343,3.532,3.539,3.552,3.5562,3.5601,3.5765,3.5743,3.5788,3.5869,3.5938,3.5956,3.5972,3.6027,3.6047,3.5801,3.5802,3.5802,0,3.4941,3.5062,3.5066,3.5155,3.5199,3.5175,3.5272,3.5313,3.5395,3.5425,3.5391,3.5551,3.559,3.5725,3.5764,3.5798,3.5822,3.578,3.5953,3.5969,3.5984,3.6037,3.6058,3.5806,3.5806,3.5805,3.5805,0,3.5139,3.5222,3.5294,3.5373,3.5425,3.5519,3.5536,3.5588,3.5583,3.5602,3.5715,3.576,3.5839,3.5871,3.5868,3.6005,3.5984,3.5952,3.5889,3.6011,3.606,3.6081,3.5813,3.5812,3.581,3.5809,0,0,3.5329,3.5409,3.5434,3.5469,3.5535,3.5599,3.569,3.5767,3.581,3.5868,3.5942,3.6052,3.6022,3.6066,3.6067,3.6128,3.6251,3.6088,3.6089,3.6114,3.64,3.6422,3.6445,3.6237,3.6241,3.6245,3.6394,0,3.5482,3.5642,3.5648,3.5793,3.5868,3.5845,3.5924,3.5972,3.5992,3.6058,3.608,3.6156,3.6113,3.6138,3.6198,3.6223,3.6308,3.6213,3.6305,3.6308,3.6287,3.6472,3.6496,3.6635,3.6414,3.6417,3.642,0,3.5681,3.5744,3.5896,3.5949,3.5981,3.6052,3.6121,3.6185,3.6239,3.6249,3.6297,3.6288,3.6379,3.6315,3.6439,3.6374,3.6412,3.643,3.6436,3.6442,3.6369,3.648,3.668,3.6699,3.6451,3.6448,3.6446,0,3.58,3.5923,3.6029,3.606,3.6125,3.6175,3.6204,3.6253,3.6298,3.6359,3.6387,3.6458,3.6496,3.6551,3.6561,3.6514,3.6684,3.6621,3.6693,3.6692,3.6728,3.6725,3.6933,3.6758,3.6757,3.6757,3.6756,0,3.5968,3.6062,3.6083,3.6148,3.6252,3.6257,3.6359,3.6384,3.6428,3.6497,3.6482,3.6546,3.6557,3.6623,3.6632,3.6731,3.675,3.6759,3.6759,3.6758,3.6757,3.6781,3.6771,3.6762,3.6761,3.676,3.6759,0,3.6118,3.6137,3.625,3.6302,3.6317,3.6391,3.6434,3.6496,3.6513,3.66,3.6621,3.6649,3.6726,3.6741,3.6834,3.6839,3.6956,3.6949,3.6938,3.6936,3.7005,3.6997,3.7234,3.7264,3.7072,3.7074,3.7075,0,3.6223,3.6294,3.6353,3.6397,3.6429,3.6501,3.6546,3.6554,3.6602,3.6667,3.672,3.6795,3.6856,3.698,3.7007,3.7077,3.7069,3.7147,3.7079,3.7075,3.7066,3.706,3.7066,3.7159,3.7161,3.7163,3.7164,0,3.6405,3.641,3.6476,3.6545,3.6599,3.6654,3.6706,3.6743,3.6758,3.6812,3.689,3.6937,3.7029,3.7103,3.7172,3.7201,3.7185,3.7186,3.7205,3.7204,3.7193,3.7196,3.697,3.718,3.7178,3.7177,3.7176,3.7176,3.6534,3.6594,3.6644,3.6718,3.6757,3.6805,3.6865,3.6889,3.6955,3.7031,3.7032,3.7116,3.7165,3.7256,3.7289,3.7355,3.733,3.7359,3.7366,3.7372,3.7377,3.7185,3.7368,3.7367,3.7367,3.7367,3.7366,0,3.6712,3.6743,3.6811,3.6883,3.694,3.692,3.6975,3.7024,3.7099,3.7146,3.7206,3.7294,3.7365,3.7398,3.7468,3.7514,3.7508,3.7532,3.7527,3.7533,3.7397,3.7371,3.7535,3.7535,3.7535,3.7535,3.7535,3.7535,3.6812,3.6912,3.6923,3.7043,3.7073,3.7155,3.7188,3.7232,3.7269,3.7369,3.7428,3.7449,3.749,3.7562,3.7626,3.7633,3.7658,3.7685,3.7689,3.7561,3.7543,3.7527,3.7503,3.7692,3.7692,3.782,3.7821,3.7822]},{"header":{"parameterUnit":"m.s-1","parameterCategory":1,"la1":30.2991,"la2":30.254,"lo1":-89.0895,"lo2":-89.0444,"dy":0.0017,"dx":0.0017,"nx":28,"ny":28,"refTime":"2024-07-05T09:00:00:Z","depth":0,"parameterNumber":3,"parameterNumberName":"V-component_of_WINDS"},"data":[0,0,0,0,0,0,0,0,0,0,0,0,0,0,0,0,0,0,0,0,0,0,0,0,0,0,0,0,0,0,0,0,0,0,0,0,0,0,0,0,0,0,0,0,0,0,0,0,0,0,0,0,0,0,0,0,0,0,2.5339,2.5339,0,2.5376,2.5376,2.5377,2.5343,2.5341,2.534,2.5339,2.5376,2.5378,2.538,0,0,0,0,0,0,0,0,0,0,0,0,0,2.5236,2.5238,2.5339,2.5339,2.534,2.5376,2.5376,2.5377,2.5343,2.5341,2.534,2.5338,2.5375,2.5378,2.5381,0,0,0,0,0,0,0,0,0,0,0,0,0,2.5277,2.5238,2.5339,2.5327,2.5327,2.5376,2.5376,2.5377,2.5343,2.5341,2.5339,2.5337,2.5374,2.5378,2.5381,2.5443,0,0,2.5391,2.5393,0,0,0,0,0,0,0,0,2.5275,2.5281,2.5328,2.5328,2.5327,2.5353,2.5354,2.5399,2.5344,2.5337,2.5339,2.5336,2.537,2.5373,2.5385,2.5445,2.5447,2.5392,2.5394,2.5395,2.5396,0,0,0,0,0,0,0,2.5272,2.5279,2.5353,2.5329,2.5329,2.5319,2.5323,2.5362,2.5364,2.5337,2.5335,2.534,2.5369,2.5382,2.5386,2.5447,2.5392,2.5395,2.5397,2.5398,2.5557,2.5559,0,0,0,0,0,0,2.5271,2.5277,2.5352,2.5355,2.5296,2.5323,2.5327,2.5347,2.5364,2.5365,2.5342,2.5338,2.5377,2.5382,2.5387,2.5459,2.5395,2.5398,2.54,2.5555,2.5558,2.556,0,0,0,0,0,0,2.5269,2.5278,2.5351,2.5315,2.5324,2.5327,2.5349,2.5348,2.5361,2.5367,2.5367,2.5354,2.5375,2.5382,2.5429,2.546,2.54,2.5403,2.5552,2.5556,2.5559,2.5605,0,0,0,0,0,0,2.5266,2.5277,2.5302,2.5316,2.5326,2.5393,2.5351,2.5351,2.5367,2.5363,2.5379,2.538,2.5374,2.5424,2.5432,2.5463,2.5406,2.555,2.5554,2.5558,2.5601,2.5609,2.5617,0,0,0,0,0,2.5262,2.5314,2.5303,2.5313,2.5357,2.5395,2.5401,2.5394,2.537,2.5394,2.5397,2.5379,2.5455,2.5429,2.5438,2.5471,2.5548,2.5553,2.5557,2.5597,2.5608,2.5617,0,0,0,0,0,0,2.5304,2.5316,2.5304,2.5362,2.5378,2.5389,2.542,2.5406,2.5429,2.5424,2.5414,2.5418,2.5467,2.5473,2.5444,2.553,2.5497,2.5504,2.5524,2.5534,2.5542,2.5539,2.5409,0,0,0,0,0,2.532,2.5351,2.5359,2.5409,2.5418,2.5417,2.5434,2.5427,2.5443,2.5449,2.5456,2.5472,2.5499,2.5517,2.5543,2.5601,2.5603,2.5628,2.5636,2.5643,2.5649,2.5677,2.5688,2.5576,2.5576,2.5576,0,0,2.5353,2.5363,2.5384,2.5418,2.5429,2.546,2.5423,2.5458,2.5481,2.5455,2.5499,2.5504,2.5521,2.5573,2.5597,2.558,2.568,2.5649,2.5654,2.5656,2.5684,2.5694,2.5704,2.5579,2.5579,2.5578,0,0,2.5429,2.5441,2.5483,2.5494,2.5512,2.5511,2.552,2.5534,2.5536,2.558,2.5561,2.5587,2.5634,2.5646,2.5658,2.5736,2.5719,2.5744,2.5786,2.5815,2.5823,2.5831,2.5857,2.5867,2.575,2.575,2.575,0,2.5468,2.5515,2.5506,2.5541,2.5556,2.5533,2.5574,2.5586,2.5611,2.5621,2.5602,2.5659,2.5669,2.5723,2.5741,2.5753,2.5762,2.5742,2.5823,2.5831,2.5838,2.5862,2.5872,2.5753,2.5753,2.5753,2.5752,0,2.5561,2.5593,2.5624,2.5648,2.5666,2.5705,2.57,2.5719,2.571,2.5711,2.5755,2.5765,2.5791,2.5803,2.5795,2.5855,2.5844,2.5825,2.5791,2.5851,2.5874,2.5883,2.5757,2.5756,2.5755,2.5755,0,0,2.5665,2.5682,2.5693,2.5702,2.5719,2.5743,2.5779,2.5804,2.582,2.5837,2.5866,2.5906,2.5887,2.59,2.5893,2.5918,2.5976,2.5895,2.5895,2.5908,2.604,2.6054,2.6065,2.5965,2.5967,2.5968,2.6038,0,2.574,2.5803,2.5795,2.5855,2.5883,2.5861,2.5892,2.5904,2.5905,2.5929,2.5929,2.5957,2.5931,2.5938,2.5962,2.5964,2.6002,2.5959,2.5991,2.5992,2.5986,2.6077,2.6093,2.6158,2.6047,2.6049,2.605,0,2.5837,2.5856,2.5919,2.5928,2.594,2.5968,2.5988,2.6012,2.6025,2.6023,2.6038,2.6025,2.606,2.6026,2.6072,2.6043,2.6055,2.6058,2.606,2.6062,2.6024,2.608,2.6179,2.6188,2.6064,2.6063,2.6062,0,2.5905,2.5947,2.5989,2.5997,2.601,2.603,2.6036,2.6046,2.6061,2.6079,2.6088,2.611,2.6122,2.6139,2.6132,2.6108,2.6179,2.6145,2.6177,2.6178,2.6193,2.6192,2.6294,2.6203,2.6203,2.6203,2.6203,0,2.5989,2.6027,2.6019,2.6045,2.6086,2.6076,2.6117,2.612,2.613,2.6155,2.6137,2.6161,2.6151,2.6173,2.6168,2.6206,2.6212,2.6211,2.6209,2.6212,2.6212,2.6219,2.6214,2.6205,2.6205,2.6204,2.6204,0,2.6072,2.6068,2.6111,2.6119,2.6121,2.6152,2.6157,2.6181,2.6179,2.6211,2.6218,2.6216,2.6241,2.6236,2.6265,2.6261,2.6308,2.6301,2.6303,2.6301,2.6333,2.633,2.6443,2.6456,2.6358,2.6359,2.636,0,2.6125,2.6154,2.6163,2.6179,2.6186,2.6211,2.6225,2.6215,2.6231,2.6246,2.6267,2.6291,2.6309,2.6351,2.6351,2.6372,2.6365,2.6403,2.6368,2.6369,2.6363,2.6361,2.6363,2.6409,2.6411,2.6411,2.6412,0,2.622,2.6215,2.6237,2.6257,2.6274,2.6289,2.6303,2.6316,2.6307,2.6325,2.6351,2.6365,2.6393,2.6416,2.6435,2.644,2.6424,2.6423,2.6431,2.6434,2.6434,2.6433,2.6321,2.6421,2.642,2.6419,2.6419,2.6418,2.6288,2.6312,2.6321,2.6345,2.6354,2.6366,2.6388,2.6388,2.6409,2.6431,2.6424,2.6452,2.6462,2.6485,2.6493,2.6514,2.65,2.6512,2.6515,2.6518,2.6521,2.6431,2.6518,2.6518,2.6517,2.6517,2.6517,0,2.638,2.6385,2.6406,2.6425,2.6443,2.6426,2.644,2.6456,2.6481,2.6491,2.6509,2.6537,2.6559,2.656,2.658,2.6597,2.659,2.6603,2.6601,2.6602,2.6534,2.6524,2.6608,2.6608,2.6608,2.6608,2.6608,2.6608,2.643,2.6468,2.6465,2.6506,2.651,2.6538,2.6546,2.6557,2.6565,2.6597,2.6615,2.6615,2.6622,2.6642,2.666,2.666,2.6667,2.6682,2.6679,2.6616,2.6607,2.6598,2.6589,2.6685,2.6685,2.6745,2.6746,2.6746]}]]